FW6725 Weather Reports


Display with metric or nautical units.
time (UTC)temp
F
wind
direction
speed
MPH
gust
MPH
rain 1hr
in
rain 24hr
in
rain mn
in
humidity
%
barometer
mb
20260510160527 53 135 8.0 13.0 0.00 0.00 0.00 47 1011.8
20260510155526 53 126 9.0 15.0 0.00 0.00 0.00 46 1011.8
20260510154545 53 125 10.0 17.0 0.00 0.00 0.00 45 1012.0
20260510153524 54 126 9.0 17.0 0.00 0.00 0.00 44 1012.0
20260510152522 54 134 8.0 13.0 0.00 0.00 0.00 44 1012.1
20260510151542 54 130 8.0 14.0 0.00 0.00 0.00 43 1012.2
20260510150521 54 124 9.0 15.0 0.00 0.00 0.00 42 1012.4
20260510145520 54 122 8.0 15.0 0.00 0.00 0.00 41 1012.6
20260510144518 54 138 8.0 14.0 0.00 0.00 0.00 41 1012.8
20260510143517 55 134 8.0 14.0 0.00 0.00 0.00 40 1012.9
20260510142537 55 110 8.0 14.0 0.00 0.00 0.00 39 1012.9
20260510141516 55 121 8.0 15.0 0.00 0.00 0.00 38 1013.1
20260510140545 55 131 8.0 14.0 0.00 0.00 0.00 38 1013.1
20260510135545 56 136 8.0 15.0 0.00 0.00 0.00 37 1013.2
20260510134543 56 128 10.0 18.0 0.00 0.00 0.00 36 1013.3
20260510133546 57 113 10.0 16.0 0.00 0.00 0.00 34 1013.4
20260510132541 57 116 9.0 16.0 0.00 0.00 0.00 34 1013.5
20260510131540 57 132 9.0 17.0 0.00 0.00 0.00 35 1013.7
20260510130559 57 138 9.0 18.0 0.00 0.00 0.00 35 1013.7
20260510125540 57 137 9.0 17.0 0.00 0.00 0.00 34 1013.9
20260510124539 57 135 10.0 19.0 0.00 0.00 0.00 33 1014.0
20260510123536 57 142 11.0 21.0 0.00 0.00 0.00 33 1014.1
20260510122535 57 132 12.0 21.0 0.00 0.00 0.00 32 1014.2
20260510121534 57 147 11.0 19.0 0.00 0.00 0.00 32 1014.3
20260510120533 58 134 11.0 20.0 0.00 0.00 0.00 32 1014.5
20260510115532 57 138 12.0 20.0 0.00 0.00 0.00 32 1014.6
20260510114532 57 147 11.0 20.0 0.00 0.00 0.00 33 1014.7
20260510113531 57 126 13.0 24.0 0.00 0.00 0.00 33 1014.7
20260510112550 59 105 12.0 24.0 0.00 0.00 0.00 31 1014.7
20260510111549 59 125 9.0 20.0 0.00 0.00 0.00 32 1014.9
20260510110528 57 118 11.0 18.0 0.00 0.00 0.00 33 1015.0
20260510105527 58 113 11.0 21.0 0.00 0.00 0.00 33 1015.2
20260510104527 57 126 12.0 22.0 0.00 0.00 0.00 34 1015.4
20260510103525 57 136 11.0 20.0 0.00 0.00 0.00 34 1015.5
20260510102544 58 131 11.0 20.0 0.00 0.00 0.00 32 1015.6
20260510101543 58 140 10.0 16.0 0.00 0.00 0.00 32 1015.7
20260510100522 57 134 10.0 18.0 0.00 0.00 0.00 32 1015.8
20260510095541 57 116 12.0 19.0 0.00 0.00 0.00 33 1015.9
20260510094520 57 117 12.0 19.0 0.00 0.00 0.00 32 1016.0
20260510093519 58 111 10.0 19.0 0.00 0.00 0.00 31 1016.1
20260510092518 58 133 11.0 19.0 0.00 0.00 0.00 31 1016.2
20260510091557 58 135 10.0 17.0 0.00 0.00 0.00 31 1016.3
20260510090536 57 122 12.0 21.0 0.00 0.00 0.00 32 1016.4
20260510085515 58 144 10.0 19.0 0.00 0.00 0.00 31 1016.5
20260510084545 57 131 11.0 18.0 0.00 0.00 0.00 31 1016.6
20260510083543 57 131 10.0 18.0 0.00 0.00 0.00 31 1016.7
20260510082542 57 151 10.0 16.0 0.00 0.00 0.00 31 1016.8
20260510081542 57 158 10.0 21.0 0.00 0.00 0.00 32 1017.0
20260510080541 57 113 8.0 17.0 0.00 0.00 0.00 32 1017.1
20260510075540 56 138 9.0 17.0 0.00 0.00 0.00 33 1017.3
20260510074539 56 129 8.0 14.0 0.00 0.00 0.00 34 1017.4
20260510073538 57 122 8.0 14.0 0.00 0.00 0.00 34 1017.5
20260510072537 55 120 8.0 16.0 0.00 0.00 0.00 34 1017.7
20260510071536 55 115 8.0 14.0 0.00 0.00 0.00 37 1017.9
20260510070555 55 149 6.0 11.0 0.00 0.00 0.00 38 1018.1
20260510065534 54 125 7.0 11.0 0.00 0.00 0.00 37 1018.2
20260510064613 55 112 6.0 10.0 0.00 0.00 0.00 40 1018.3
20260510063532 54 114 6.0 10.0 0.00 0.00 0.00 42 1018.4
20260510062551 53 110 6.0 9.0 0.00 0.00 0.00 43 1018.5
20260510061531 52 100 5.0 9.0 0.00 0.00 0.00 45 1018.6
20260510060529 52 116 6.0 9.0 0.00 0.00 0.00 47 1018.7
20260510055548 51 94 6.0 9.0 0.00 0.00 0.00 48 1018.7
20260510054527 50 87 6.0 8.0 0.00 0.00 0.00 53 1018.8
20260510053526 49 93 6.0 9.0 0.00 0.00 0.00 54 1018.9
20260510052525 48 100 6.0 9.0 0.00 0.00 0.00 57 1019.0
20260510051524 47 105 6.0 8.0 0.00 0.00 0.00 60 1019.1
20260510050524 47 99 6.0 9.0 0.00 0.00 0.00 60 1019.2
20260510045522 46 99 5.0 7.0 0.00 0.00 0.00 61 1019.3
20260510044542 45 97 5.0 7.0 0.00 0.00 0.00 62 1019.4
20260510043521 45 89 5.0 6.0 0.00 0.00 0.00 62 1019.5
20260510042520 44 89 5.0 7.0 0.00 0.00 0.00 64 1019.6
20260510041519 43 94 5.0 7.0 0.00 0.00 0.00 64 1019.6
20260510040518 43 92 5.0 7.0 0.00 0.00 0.00 63 1019.7
20260510035546 42 92 5.0 7.0 0.00 0.00 0.00 65 1019.7
20260510034545 42 96 5.0 6.0 0.00 0.00 0.00 65 1019.8
20260510033544 41 96 5.0 6.0 0.00 0.00 0.00 66 1019.9
20260510032543 41 96 5.0 6.0 0.00 0.00 0.00 66 1019.9
20260510031542 40 100 4.0 6.0 0.00 0.00 0.00 66 1020.0
20260510030541 40 98 5.0 7.0 0.00 0.00 0.00 67 1020.0
20260510025541 39 99 6.0 7.0 0.00 0.00 0.00 67 1020.1
20260510024540 39 97 6.0 7.0 0.00 0.00 0.00 66 1020.2
20260510023539 39 99 6.0 7.0 0.00 0.00 0.00 65 1020.2
20260510022558 39 97 6.0 8.0 0.00 0.00 0.00 64 1020.3
20260510021557 39 96 6.0 8.0 0.00 0.00 0.00 64 1020.5
20260510020556 39 93 7.0 9.0 0.00 0.00 0.00 64 1020.5
20260510015535 39 92 6.0 8.0 0.00 0.00 0.00 63 1020.7
20260510014534 39 92 7.0 9.0 0.00 0.00 0.00 63 1020.7
20260510013533 39 92 7.0 9.0 0.00 0.00 0.00 63 1020.7
20260510012532 40 93 7.0 9.0 0.00 0.00 0.00 63 1020.8
20260510011611 40 90 7.0 9.0 0.00 0.00 0.00 63 1020.9
20260510010530 40 91 7.0 9.0 0.00 0.00 0.00 62 1021.0
20260510005529 40 92 7.0 9.0 0.00 0.00 0.00 61 1021.1
20260510004528 41 94 7.0 8.0 0.00 0.00 0.00 60 1021.3
20260510003527 41 96 7.0 9.0 0.00 0.00 0.00 60 1021.3
20260510002546 41 95 7.0 9.0 0.00 0.00 0.00 59 1021.4
20260510001545 40 94 7.0 9.0 0.00 0.00 0.00 59 1021.5
20260510000544 41 96 7.0 9.0 0.00 0.00 0.00 54 1021.5
20260509235523 41 96 7.0 9.0 0.00 0.00 0.00 52 1021.6
20260509234602 41 96 7.0 9.0 0.00 0.00 0.00 50 1021.7
20260509233521 41 96 7.0 9.0 0.00 0.00 0.00 48 1021.8
20260509232520 42 98 7.0 9.0 0.00 0.00 0.00 46 1022.0
20260509231600 42 96 7.0 9.0 0.00 0.00 0.00 46 1022.1
20260509230518 42 98 7.0 9.0 0.00 0.00 0.00 45 1022.3
20260509225517 42 97 7.0 9.0 0.00 0.00 0.00 45 1022.3
20260509224546 42 99 7.0 8.0 0.00 0.00 0.00 45 1022.4
20260509223545 43 101 7.0 9.0 0.00 0.00 0.00 42 1022.4
20260509222544 43 101 6.0 9.0 0.00 0.00 0.00 41 1022.5
20260509221543 43 104 6.0 8.0 0.00 0.00 0.00 41 1022.7
20260509220603 43 102 6.0 9.0 0.00 0.00 0.00 41 1022.7
20260509215601 42 102 6.0 8.0 0.00 0.00 0.00 42 1022.8
20260509214540 43 99 6.0 7.0 0.00 0.00 0.00 41 1022.8
20260509213539 43 103 5.0 6.0 0.00 0.00 0.00 41 1022.9
20260509212538 43 103 5.0 7.0 0.00 0.00 0.00 41 1023.0
20260509211537 44 108 4.0 6.0 0.00 0.00 0.00 40 1023.1
20260509210536 44 106 5.0 8.0 0.00 0.00 0.00 39 1023.1
20260509205535 45 104 6.0 8.0 0.00 0.00 0.00 39 1023.0
20260509204535 45 100 6.0 9.0 0.00 0.00 0.00 38 1023.0
20260509203533 45 99 5.0 8.0 0.00 0.00 0.00 38 1023.1
20260509202533 45 103 6.0 9.0 0.00 0.00 0.00 36 1023.2
20260509201532 46 104 6.0 9.0 0.00 0.00 0.00 35 1023.1
20260509200531 46 104 5.0 7.0 0.00 0.00 0.00 36 1023.3
20260509195530 47 107 5.0 9.0 0.00 0.00 0.00 35 1023.3
20260509194529 47 105 6.0 9.0 0.00 0.00 0.00 34 1023.3
20260509193548 47 107 4.0 7.0 0.00 0.00 0.00 35 1023.4
20260509192527 47 99 4.0 6.0 0.00 0.00 0.00 35 1023.4
20260509191526 48 86 4.0 6.0 0.00 0.00 0.00 33 1023.6
20260509190525 48 96 5.0 8.0 0.00 0.00 0.00 32 1023.6
20260509185524 50 103 7.0 10.0 0.00 0.00 0.00 30 1023.6
20260509184523 49 99 6.0 10.0 0.00 0.00 0.00 31 1023.6
20260509183522 50 105 6.0 10.0 0.00 0.00 0.00 30 1023.6
20260509182521 51 111 8.0 16.0 0.00 0.00 0.00 28 1023.6
20260509181520 51 108 10.0 16.0 0.00 0.00 0.00 27 1023.6
20260509180519 52 105 10.0 18.0 0.00 0.00 0.00 27 1023.7
20260509175518 52 107 10.0 18.0 0.00 0.00 0.00 27 1023.7
20260509174517 52 103 9.0 16.0 0.00 0.00 0.00 27 1023.8
20260509173537 53 103 10.0 16.0 0.00 0.00 0.00 27 1023.9
20260509172605 53 102 11.0 16.0 0.00 0.00 0.00 27 1024.0
20260509171605 53 107 11.0 18.0 0.00 0.00 0.00 27 1024.0
20260509170543 53 111 11.0 19.0 0.00 0.00 0.00 27 1024.2
20260509165543 53 113 10.0 19.0 0.00 0.00 0.00 27 1024.2
20260509164542 53 105 11.0 17.0 0.00 0.00 0.00 27 1024.3
20260509163600 54 110 12.0 17.0 0.00 0.00 0.00 27 1024.4
20260509162540 53 116 12.0 18.0 0.00 0.00 0.00 27 1024.5
20260509161559 54 106 10.0 18.0 0.00 0.00 0.00 26 1024.5